Dewpoint
55 54 55 56 56 56 56 55 56 55 55 54 55 55 54 53 53 53 53 52 53 55 55 56 56 56 51 34 31 31 53 45 35 33 26 27 27 27 24 24 24 20 19 19 19 18 18
54 54 55 56 56 56 56 55 55 55 55 54 54 55 55 53 53 53 53 53 54 55 55 55 56 56 43 30 30 32 31 30 30 31 29 28 27 27 28 24 24 25 23 23 23 21 22
54 54 56 56 56 56 55 55 55 54 54 54 54 54 55 55 55 54 54 54 55 55 55 55 55 53 36 34 31 32 30 32 30 33 30 28 29 27 28 26 28 25 20 20 22 22 20
53 54 56 56 56 56 55 56 54 54 54 54 54 54 54 54 55 55 55 55 54 55 55 55 55 50 36 34 36 31 28 28 28 31 33 33 32 31 28 28 23 20 22 19 20 25 22
54 54 56 56 56 56 55 56 55 54 54 53 53 53 53 53 53 53 53 53 54 54 55 55 50 43 35 38 31 31 28 27 28 33 34 29 31 28 25 22 19 22 13 18 20 26 27
52 54 56 56 56 56 56 56 55 54 53 53 53 53 53 52 53 53 53 53 54 53 51 50 39 35 29 26 29 29 29 31 31 35 32 30 26 24 24 17 11 19 16 20 20 23 28
51 52 55 56 56 56 56 55 55 54 53 53 53 53 52 52 53 53 51 49 35 37 37 30 32 29 25 26 28 28 28 32 29 29 26 29 23 21 22 23 22 21 20 21 22 26 28
51 52 54 56 56 56 55 55 55 54 54 53 53 53 53 53 52 53 51 47 42 45 29 33 30 29 28 29 27 28 30 28 29 23 24 25 23 22 24 24 21 22 21 19 24 26 28
51 50 54 55 56 55 55 55 55 54 53 53 53 53 53 52 53 51 52 52 55 49 31 29 31 30 29 29 29 30 29 32 24 26 25 25 20 25 24 25 26 25 21 22 23 26 28
50 49 53 54 55 55 54 54 54 54 53 53 52 53 53 51 48 50 49 51 55 49 30 27 27 27 28 29 27 33 35 30 29 23 26 22 24 27 28 26 26 25 25 29 27 28 23
50 50 52 53 54 54 53 53 53 54 53 53 52 52 52 49 49 47 50 54 57 44 21 26 28 29 29 27 29 32 36 34 30 29 27 21 26 28 29 26 29 29 31 30 29 29 27
50 51 52 53 53 53 53 53 53 53 53 53 52 53 51 49 51 52 55 54 49 34 21 29 28 28 28 30 32 33 35 36 33 32 33 30 30 28 28 29 31 32 31 28 29 29 26
52 52 52 52 53 53 53 53 53 53 52 52 52 54 53 52 44 54 53 47 33 27 31 26 26 28 27 29 32 33 33 34 31 25 31 31 30 33 32 30 33 32 27 24 28 28 26
53 53 52 52 53 53 53 52 52 52 52 52 52 52 53 54 55 54 48 39 27 30 29 30 28 30 28 30 31 33 32 31 35 32 32 29 24 31 34 31 29 32 30 28 19 24 25
52 53 53 52 53 53 52 52 52 52 52 52 53 50 50 53 55 49 42 33 29 29 28 28 30 28 30 32 31 31 32 31 34 35 30 31 27 33 35 35 32 30 31 31 28 25 29
52 52 52 52 53 52 52 52 52 52 52 52 51 46 48 53 52 44 40 31 30 31 32 32 29 32 29 32 31 31 31 33 32 36 35 34 30 32 33 33 34 32 32 28 31 25 21
52 51 52 52 52 52 52 52 52 51 52 52 46 42 47 53 46 38 33 30 32 36 36 34 33 33 33 33 32 32 31 33 34 35 36 33 32 28 30 32 31 32 31 31 31 30 28
51 51 51 51 52 52 51 52 51 51 51 48 42 40 49 49 37 36 32 31 36 36 37 36 37 36 34 35 34 33 33 33 36 37 34 35 32 28 27 32 35 33 31 29 27 23 29
51 51 51 51 52 52 51 50 50 51 51 48 43 43 47 46 35 34 37 36 36 35 36 35 36 38 37 35 33 35 36 40 39 38 36 35 32 24 18 27 30 32 33 31 31 31 29
51 51 51 51 52 52 50 50 51 51 51 46 40 40 43 42 39 36 34 35 35 37 36 38 36 37 36 35 37 35 36 39 40 39 41 39 32 27 22 20 28 30 33 32 33 32 28
51 51 51 51 50 51 50 50 50 51 51 46 42 40 41 36 39 37 37 35 34 33 37 37 36 35 35 33 35 36 37 36 37 40 39 37 34 32 31 32 32 31 31 32 32 33 31
51 51 50 50 50 49 49 49 50 51 51 45 42 41 41 39 38 36 35 37 35 35 35 36 36 38 37 33 33 34 37 36 35 37 37 36 33 34 32 33 32 32 32 33 33 33 33
51 51 50 49 51 49 49 50 50 50 50 46 46 44 42 36 34 35 35 35 35 37 38 38 37 35 33 37 39 39 40 39 38 36 36 36 34 32 27 31 31 27 26 30 31 32 31
51 51 51 51 52 51 49 50 50 50 50 48 47 41 39 35 33 35 37 37 36 37 36 38 37 35 37 41 38 36 31 32 35 38 38 34 33 32 31 31 24 28 30 30 31 30 30
50 51 51 51 52 51 51 50 50 50 51 50 47 42 38 33 36 36 37 37 37 38 38 38 42 40 40 37 34 30 29 27 30 37 37 36 35 32 29 28 29 29 30 29 30 27 31
50 50 51 51 51 51 51 51 50 50 51 52 49 45 40 36 37 38 37 37 35 35 36 41 43 42 39 34 33 28 26 26 27 29 35 35 33 34 31 28 26 30 28 32 34 29 36
50 50 50 50 50 51 51 51 50 50 51 52 51 48 42 38 40 40 38 38 38 37 36 36 40 38 39 34 32 31 32 30 28 25 24 30 31 30 30 29 31 32 32 33 30 33 38
49 50 50 50 50 50 50 51 50 50 50 52 51 51 46 39 42 45 42 39 40 38 37 38 38 38 37 34 33 33 31 31 30 29 27 28 29 28 28 28 25 31 33 34 38 41 39
49 49 50 49 50 49 50 51 50 50 50 50 50 50 49 45 42 48 50 47 44 41 40 38 38 37 39 35 33 33 31 29 30 32 31 31 32 31 32 32 33 34 36 40 40 40 40
Lifted_Index
6 6 6 6 5 5 5 6 6 6 6 6 6 6 6 7 7 7 7 7 7 7 6 6 5 5 5 5 5 5 5 4 4 4 4 4 4 4 4 4 4 4 4 5 5 5 5
6 6 6 6 5 5 6 6 6 6 6 6 6 7 7 7 7 7 7 7 7 7 6 6 5 5 5 5 5 5 5 5 4 4 4 4 4 4 4 4 4 4 4 4 4 4 5
6 6 6 6 6 6 6 6 6 6 6 6 7 7 7 7 7 7 7 7 7 6 6 5 5 5 5 5 5 5 5 5 4 4 4 4 4 4 4 4 4 4 4 4 4 4 4
6 6 6 6 6 6 6 6 6 6 6 6 7 7 7 7 6 6 6 7 6 6 5 5 5 5 5 5 6 6 6 5 5 4 4 4 4 4 4 4 4 4 4 4 4 4 4
6 6 6 6 6 6 6 6 6 6 6 6 7 7 6 6 6 6 6 6 6 5 5 5 5 5 5 5 6 6 6 5 5 4 4 4 4 5 4 4 4 3 3 3 4 4 4
6 6 6 6 6 6 6 6 6 6 6 6 6 6 6 5 6 6 6 5 5 5 5 5 5 5 6 6 6 6 5 5 4 4 4 4 4 4 4 4 3 3 3 3 4 4 5
6 6 6 6 6 7 7 7 6 6 6 6 6 6 5 4 4 4 5 5 5 5 5 5 5 6 6 6 6 5 5 5 5 5 5 5 4 4 4 4 4 3 3 4 4 5 5
6 6 6 6 7 7 7 7 7 7 6 6 6 5 4 4 3 3 4 4 4 4 5 5 6 6 5 5 5 5 5 5 5 5 5 4 4 4 4 4 4 4 3 3 4 5 5
6 6 6 7 7 8 8 8 7 7 6 6 6 5 4 4 4 4 4 3 3 4 5 5 5 6 5 5 5 5 5 5 5 5 4 4 4 5 5 5 4 4 4 4 4 4 4
6 7 7 7 7 8 8 8 7 7 6 6 6 6 5 4 4 4 4 3 2 3 4 5 5 5 5 5 5 5 5 5 5 4 4 4 5 5 5 4 4 4 4 4 4 4 3
7 7 7 7 7 8 8 8 8 7 6 6 6 5 5 4 5 5 4 3 2 2 2 4 5 5 5 5 5 4 4 4 4 4 4 4 4 5 4 4 4 4 5 5 4 3 3
8 8 8 8 8 8 8 8 7 7 6 6 5 5 5 4 4 4 4 3 2 2 2 4 5 5 4 4 4 4 4 4 4 3 4 4 4 4 4 4 4 5 5 4 3 3 2
8 8 8 8 8 8 8 8 7 7 6 5 5 5 4 4 4 4 3 3 2 2 3 4 4 4 4 4 4 4 4 4 4 3 3 4 4 4 4 4 4 4 4 3 2 1 1
8 8 8 8 8 8 8 8 7 6 6 5 5 5 5 4 4 4 3 2 2 3 4 4 4 4 4 4 3 3 4 4 4 4 3 3 3 3 4 4 4 4 3 2 1 1 1
7 7 8 8 8 8 8 7 7 6 5 4 5 5 5 4 3 3 3 3 3 3 4 4 4 4 4 3 3 3 3 4 4 4 4 3 3 3 3 3 3 3 3 3 2 2 1
7 7 8 8 8 7 7 7 6 6 4 4 5 5 5 4 3 2 3 4 4 4 4 4 4 4 3 3 3 3 3 3 4 4 4 4 3 3 3 3 3 3 3 3 3 2 1
7 7 8 8 8 7 7 7 6 5 4 3 4 5 4 3 2 3 3 4 4 4 4 4 4 3 3 3 3 3 3 3 3 4 4 4 4 3 3 3 3 3 3 3 3 3 2
7 7 7 8 7 7 7 7 6 4 3 3 4 4 3 2 3 3 4 4 4 4 4 4 4 3 3 3 3 3 3 3 3 3 4 4 4 3 3 3 3 3 3 3 3 4 4
6 7 7 7 7 7 7 6 5 4 3 3 4 4 3 3 3 4 4 4 4 4 4 4 4 4 3 3 3 3 3 3 3 3 3 4 3 3 2 3 3 3 3 3 3 4 4
6 6 7 7 7 7 6 6 5 4 4 4 4 4 3 3 3 4 4 4 4 4 4 4 4 4 4 4 3 3 3 3 3 3 3 3 3 3 3 3 4 4 4 3 3 4 4
6 6 6 7 6 6 6 6 6 5 4 5 4 4 4 4 4 4 4 4 4 4 4 4 4 4 4 4 4 4 4 4 4 3 3 3 3 4 4 4 4 4 4 4 4 4 4
6 6 6 6 6 6 6 6 6 5 4 4 4 4 4 4 4 4 4 4 4 4 4 4 4 4 4 4 4 4 4 4 4 4 4 3 4 4 4 5 5 4 4 4 4 4 4
5 5 6 6 6 6 6 6 5 5 4 4 4 4 4 4 4 4 4 4 4 4 4 4 4 4 4 4 4 4 4 4 4 4 3 3 4 4 4 5 4 4 4 4 4 4 4
5 5 5 5 5 6 6 6 5 4 4 4 4 4 4 4 4 4 4 4 4 4 4 4 4 4 4 4 4 4 4 4 4 4 4 4 4 4 4 4 4 4 4 4 4 4 4
5 5 5 5 5 5 5 6 5 5 4 4 4 4 4 4 4 4 4 4 4 4 4 4 4 4 4 4 4 4 4 4 4 4 4 4 4 4 4 4 3 3 3 4 4 4 4
5 5 5 5 5 5 5 5 5 5 4 4 4 5 5 5 5 4 4 4 4 4 4 4 4 4 4 4 4 4 4 4 4 5 5 5 5 4 4 4 3 3 3 4 4 4 4
4 5 5 5 5 5 5 5 5 5 4 4 4 5 5 6 5 5 5 5 5 5 4 4 4 4 4 4 4 4 4 4 4 4 4 4 4 4 4 3 3 4 4 4 4 4 4
4 4 4 4 4 4 4 4 5 5 4 4 4 5 5 5 5 5 5 5 5 5 5 5 4 4 4 4 4 5 5 5 5 4 4 4 4 4 3 3 3 4 4 4 4 4 4
4 4 4 4 4 4 4 4 5 5 5 4 4 5 5 5 5 5 5 5 5 5 5 5 5 4 4 4 5 5 5 5 5 5 4 4 4 4 3 3 3 4 4 4 3 3 4